FW0304 Weather Reports


Display with metric or nautical units.
time (UTC)temp
F
wind
direction
speed
MPH
gust
MPH
rain 1hr
in
rain 24hr
in
rain mn
in
humidity
%
barometer
mb
20260905221516 93 165 0.0 3.0 0.00 0.00 0.00 57 1010.8
20260905220026 95 209 0.0 6.0 0.00 0.00 0.00 55 1010.9
20260905214532 96 184 1.0 7.0 0.00 0.00 0.00 52 1010.8
20260905213030 95 140 0.0 0.0 0.00 0.00 0.00 53 1011.0
20260905211518 94 140 0.0 2.0 0.00 0.00 0.00 55 1011.1
20260905210034 96 140 0.0 2.0 0.00 0.00 0.00 50 1011.2
20260905204534 97 167 0.0 2.0 0.00 0.00 0.00 48 1011.3
20260905203032 97 349 0.0 2.0 0.00 0.00 0.00 49 1011.4
20260905201532 96 307 0.0 2.0 0.00 0.00 0.00 48 1011.7
20260905200023 96 303 0.0 2.0 0.00 0.00 0.00 50 1012.0
20260905194527 96 329 0.0 2.0 0.00 0.00 0.00 50 1012.1
20260905193034 97 248 0.0 2.0 0.00 0.00 0.00 48 1012.2
20260905191540 96 300 1.0 2.0 0.00 0.00 0.00 48 1012.4
20260905190020 95 290 0.0 2.0 0.00 0.00 0.00 52 1012.7
20260905184525 97 343 0.0 6.0 0.00 0.00 0.00 48 1012.8
20260905183006 96 100 1.0 3.0 0.00 0.00 0.00 49 1013.2
20260905181512 96 349 1.0 3.0 0.00 0.00 0.00 49 1013.4
20260905180015 96 171 1.0 3.0 0.00 0.00 0.00 50 1013.6
20260905174523 96 352 1.0 4.0 0.00 0.00 0.00 52 1013.9
20260905173003 94 280 0.0 3.0 0.00 0.00 0.00 54 1014.0
20260905171513 95 294 1.0 2.0 0.00 0.00 0.00 53 1014.1
20260905170014 94 286 0.0 2.0 0.00 0.00 0.00 54 1014.2
20260905164520 94 319 0.0 2.0 0.00 0.00 0.00 56 1014.4
20260905163032 92 298 0.0 2.0 0.00 0.00 0.00 62 1014.7
20260905161509 93 5 1.0 2.0 0.00 0.00 0.00 62 1014.9
20260905160011 91 226 1.0 2.0 0.00 0.00 0.00 65 1015.0
20260905154513 90 306 0.0 2.0 0.00 0.00 0.00 68 1015.1
20260905153024 91 306 0.0 2.0 0.00 0.00 0.00 68 1015.2
20260905151529 88 294 0.0 0.0 0.00 0.00 0.00 72 1015.3
20260905150008 88 301 0.0 2.0 0.00 0.00 0.00 73 1015.2
20260905144513 88 302 0.0 2.0 0.00 0.00 0.00 72 1015.2
20260905143019 85 79 0.0 2.0 0.00 0.00 0.00 79 1015.2
20260905141527 85 269 0.0 2.0 0.00 0.00 0.00 77 1015.2
20260905140005 84 313 0.0 2.0 0.00 0.00 0.00 80 1015.2
20260905134513 83 311 0.0 2.0 0.00 0.00 0.00 81 1015.3
20260905133018 81 322 1.0 2.0 0.00 0.00 0.00 85 1015.3
20260905131534 79 329 0.0 1.0 0.00 0.00 0.00 87 1015.4
20260905130031 77 329 0.0 2.0 0.00 0.00 0.00 89 1015.5
20260905124510 76 329 0.0 0.0 0.00 0.00 0.00 91 1015.4
20260905123017 74 329 0.0 0.0 0.00 0.00 0.00 92 1015.3
20260905121526 74 329 0.0 0.0 0.00 0.00 0.00 1015.1
20260905120034 73 329 0.0 0.0 0.00 0.00 0.00 1014.7
20260905114532 73 329 0.0 0.0 0.00 0.00 0.00 93 1014.7
20260905113010 73 329 0.0 0.0 0.00 0.00 0.00 93 1014.7
20260905111521 74 329 0.0 0.0 0.00 0.00 0.00 93 1014.5
20260905110023 74 329 0.0 0.0 0.00 0.00 0.00 93 1014.4
20260905104530 74 329 0.0 0.0 0.00 0.00 0.00 92 1014.2
20260905103013 74 329 0.0 0.0 0.00 0.00 0.00 93 1014.1
20260905101515 74 329 0.0 0.0 0.00 0.00 0.00 92 1014.3
20260905100026 74 329 0.0 0.0 0.00 0.00 0.00 92 1014.5
20260905094559 75 329 0.0 0.0 0.00 0.00 0.00 92 1014.3
20260905093007 75 329 0.0 0.0 0.00 0.00 0.00 92 1014.2
20260905091515 75 329 0.0 0.0 0.00 0.00 0.00 91 1014.2
20260905090020 75 329 0.0 0.0 0.00 0.00 0.00 92 1014.4
20260905084526 75 329 0.0 0.0 0.00 0.00 0.00 92 1014.2
20260905083009 75 329 0.0 0.0 0.00 0.00 0.00 91 1014.2
20260905081511 75 329 0.0 0.0 0.00 0.00 0.00 91 1014.1
20260905080016 76 329 0.0 0.0 0.00 0.00 0.00 91 1014.2
20260905074527 76 329 0.0 0.0 0.00 0.00 0.00 90 1013.9
20260905073028 76 329 0.0 0.0 0.00 0.00 0.00 90 1014.0
20260905071507 76 329 0.0 0.0 0.00 0.00 0.00 90 1013.8
20260905070016 76 329 0.0 0.0 0.00 0.00 0.00 89 1013.9
20260905064524 77 329 0.0 0.0 0.00 0.00 0.00 89 1014.0
20260905063028 77 329 0.0 0.0 0.00 0.00 0.00 88 1014.0
20260905061508 77 329 0.0 0.0 0.00 0.00 0.00 88 1013.8
20260905060014 77 329 0.0 0.0 0.00 0.00 0.00 87 1013.9
20260905054525 78 329 0.0 0.0 0.00 0.00 0.00 87 1014.0
20260905053030 78 329 0.0 0.0 0.00 0.00 0.00 86 1014.0
20260905051535 78 329 0.0 2.0 0.00 0.00 0.00 85 1013.9
20260905050011 78 329 0.0 0.0 0.00 0.00 0.00 84 1014.0
20260905044518 78 329 0.0 0.0 0.00 0.00 0.00 85 1013.9
20260905043026 77 329 0.0 0.0 0.00 0.00 0.00 86 1014.2
20260905041531 78 329 0.0 0.0 0.00 0.00 0.00 85 1014.3
20260905040032 78 329 0.0 0.0 0.00 0.00 0.00 84 1014.1
20260905034515 79 329 0.0 0.0 0.00 0.00 0.00 82 1014.0
20260905033023 79 329 0.0 2.0 0.00 0.00 0.00 81 1014.0
20260905031537 79 332 0.0 2.0 0.00 0.00 0.00 82 1014.1
20260905030031 79 337 0.0 0.0 0.00 0.00 0.00 81 1014.0
20260905024555 79 337 0.0 0.0 0.00 0.00 0.00 80 1014.1
20260905023021 80 337 0.0 0.0 0.00 0.00 0.00 79 1014.0
20260905021525 80 337 0.0 0.0 0.00 0.00 0.00 78 1014.0
20260905020033 80 337 0.0 0.0 0.00 0.00 0.00 78 1014.0
20260905014535 81 337 0.0 0.0 0.00 0.00 0.00 76 1013.9
20260905013022 81 337 0.0 0.0 0.00 0.00 0.00 75 1013.8
20260905011523 82 337 0.0 0.0 0.00 0.00 0.00 73 1013.9
20260905010027 83 337 0.0 0.0 0.00 0.00 0.00 72 1013.7
20260905004532 83 337 0.0 1.0 0.00 0.00 0.00 69 1013.8
20260905003035 84 309 0.0 0.0 0.00 0.00 0.00 67 1013.8
20260905001521 86 309 0.0 0.0 0.00 0.00 0.00 63 1013.6
20260905000030 86 309 0.0 0.0 0.00 0.00 0.00 62 1013.5
20260904234534 87 309 0.0 0.0 0.00 0.00 0.00 61 1013.5
20260904233032 88 295 0.0 4.0 0.00 0.00 0.00 57 1013.6
20260904231534 92 299 1.0 11.0 0.00 0.00 0.00 52 1013.7
20260904230027 96 135 0.0 2.0 0.00 0.00 0.00 48 1013.2
20260904224530 96 108 0.0 2.0 0.00 0.00 0.00 48 1013.1
20260904223036 96 346 0.0 1.0 0.00 0.00 0.00 48 1013.1